Location: Newark
(49.8969°N, 3.3422°E)
Time: 11:22:30
(UTC+00:00)

Explorer 7 - Pass Details

Date: 30 January 2020
Orbit: 485 x 679 km, 50.3° (Epoch: 25 February)

Event Time Altitude Azimuth Distance (km) Brightness Sun altitude
Rises 19:40:00 0° 200° (SSW) 2,629 10.4 -29.4°
Enters shadow 19:40:01 - 200° (SSW) 2,625 10.4 -29.4°
Reaches altitude 10° 19:42:53 10° 179° (S) 1,714 - -29.9°
Maximum altitude 19:45:17 16° 140° (SE) 1,364 - -30.3°
Drops below altitude 10° 19:47:39 10° 101° (E) 1,683 - -30.7°
Sets 19:50:26 0° 79° (E) 2,556 - -31.1°
